This is the latest recevied weather packets stored in our database for station/object TA3MHA. If no packets are shown the sender has not sent any weather packets the latest 10 day(s).
| Time | Temp. | Humidity | Pressure | Rain* | Wind** | Luminosity | Snow |
|---|---|---|---|---|---|---|---|
| 1777039800 | 17.78° C | 42% | - | 0 mm | - | 386 W/m² | - |
| 1777039501 | 17.78° C | 41% | - | 0 mm | - | 396 W/m² | - |
| 1777039200 | 17.78° C | 41% | - | 0 mm | - | 407 W/m² | - |
| 1777038901 | 18.33° C | 38% | - | 0 mm | - | 421 W/m² | - |
| 1777038600 | 17.78° C | 38% | - | 0 mm | - | 439 W/m² | - |
| 1777038301 | 17.78° C | 37% | - | 0 mm | - | 458 W/m² | - |
| 1777038001 | 18.33° C | 36% | - | 0 mm | - | 483 W/m² | - |
| 1777037700 | 18.33° C | 40% | - | 0 mm | - | 498 W/m² | - |
| 1777037401 | 17.78° C | 39% | - | 0 mm | - | 518 W/m² | - |
| 1777037100 | 17.78° C | 43% | - | 0 mm | - | 519 W/m² | - |
| 1777036800 | 17.78° C | 42% | - | 0 mm | - | 558 W/m² | - |
| 1777036501 | 17.22° C | 39% | - | 0 mm | - | 528 W/m² | - |
| 1777036200 | 17.78° C | 36% | - | 0 mm | - | 165 W/m² | - |
| 1777035900 | 18.33° C | 36% | - | 0 mm | - | 185 W/m² | - |
| 1777035601 | 17.78° C | 36% | - | 0 mm | - | 654 W/m² | - |
| 1777035301 | 18.33° C | 35% | - | 0 mm | - | 663 W/m² | - |
| 1777035001 | 17.78° C | 37% | - | 0 mm | - | 677 W/m² | - |
| 1777034701 | 17.78° C | 37% | - | 0 mm | - | 484 W/m² | - |
| 1777034400 | 17.78° C | 37% | - | 0 mm | - | 231 W/m² | - |
| 1777034100 | 17.22° C | 37% | - | 0 mm | - | 673 W/m² | - |
| 1777033800 | 17.78° C | 37% | - | 0 mm | - | 266 W/m² | - |
| 1777033501 | 17.78° C | 37% | - | 0 mm | - | 565 W/m² | - |
| 1777033200 | 17.78° C | 35% | - | 0 mm | - | 285 W/m² | - |
| 1777032901 | 18.33° C | 34% | - | 0 mm | - | 331 W/m² | - |
| 1777032601 | 18.89° C | 35% | - | 0 mm | - | 857 W/m² | - |
* Rain latest hour (hover to see other rain measurements)
** Current wind speed in m/s (hover to see current wind gust speed)